EW4994 Weather Reports


time (UTC)temp
C
wind
direction
speed
KPH
gust
KPH
rain 1hr
cm
rain 24hr
cm
rain mn
cm
humidity
%
barometer
mb
20260504090104 18 207 19.3 24.1 0.00 0.00 0.00 59 1010.4
20260504081555 18 223 20.9 33.8 0.00 0.00 0.00 58 1010.3
20260504050023 18 182 16.1 24.1 0.00 0.00 0.00 51 1012.1
20260504044521 18 194 16.1 25.7 0.00 0.00 0.00 50 1012.2
20260504043020 18 188 14.5 22.5 0.00 0.00 0.00 49 1012.2
20260504041518 18 214 12.9 20.9 0.00 0.00 0.00 49 1012.3
20260504040017 18 224 11.3 25.7 0.00 0.00 0.00 49 1012.4
20260504034531 18 206 12.9 19.3 0.00 0.00 0.00 48 1012.5
20260504033018 18 194 8.0 27.4 0.00 0.00 0.00 47 1012.6
20260504031514 18 193 16.1 22.5 0.00 0.00 0.00 47 1012.6
20260504030014 18 227 16.1 25.7 0.00 0.00 0.00 46 1012.7
20260504024515 18 209 14.5 24.1 0.00 0.00 0.00 45 1012.8
20260504023013 18 205 12.9 24.1 0.00 0.00 0.00 45 1012.7
20260504021513 18 205 9.7 17.7 0.00 0.00 0.00 46 1012.7
20260504020012 18 198 11.3 20.9 0.00 0.00 0.00 46 1012.6
20260504014517 18 204 9.7 17.7 0.00 0.00 0.00 44 1012.7
20260504013011 19 218 12.9 17.7 0.00 0.00 0.00 43 1012.7
20260504011511 19 203 9.7 16.1 0.00 0.00 0.00 42 1012.6
20260504010010 20 196 11.3 16.1 0.00 0.00 0.00 40 1012.7
20260504004509 20 210 8.0 16.1 0.00 0.00 0.00 39 1012.6
20260504003008 21 215 12.9 22.5 0.00 0.00 0.00 37 1012.5
20260504001506 21 197 14.5 22.5 0.00 0.00 0.00 36 1012.7
20260504000006 21 194 17.7 27.4 0.00 0.00 0.00 35 1012.6
20260503234502 21 217 17.7 27.4 0.00 0.00 0.00 36 1012.8
20260503233100 21 237 24.1 37.0 0.00 0.00 0.00 35 1012.9
20260503231558 22 218 14.5 29.0 0.00 0.00 0.00 35 1013.1
20260503224554 22 216 25.7 40.2 0.00 0.00 0.00 32 1013.5
20260503223052 22 222 17.7 30.6 0.00 0.00 0.00 34 1013.6
20260503221548 22 198 20.9 35.4 0.00 0.00 0.00 33 1013.9
20260503220047 21 211 25.7 40.2 0.00 0.00 0.00 33 1014.0
20260503214552 21 192 19.3 35.4 0.00 0.00 0.00 34 1014.2
20260503213106 21 195 19.3 33.8 0.00 0.00 0.00 35 1014.4
20260503211557 21 243 20.9 32.2 0.00 0.00 0.00 36 1014.8
20260503210036 21 252 25.7 40.2 0.00 0.00 0.00 34 1015.0
20260503204550 21 212 24.1 38.6 0.00 0.00 0.00 36 1015.3
20260503203033 20 227 22.5 40.2 0.00 0.00 0.00 35 1015.6
20260503201526 20 223 19.3 38.6 0.00 0.00 0.00 38 1016.2
20260503200023 20 229 17.7 38.6 0.00 0.00 0.00 37 1016.5
20260503194523 20 182 22.5 37.0 0.00 0.00 0.00 37 1016.9
20260503193015 20 188 24.1 43.5 0.00 0.00 0.00 38 1017.3
20260503191513 20 263 22.5 41.8 0.00 0.00 0.00 41 1017.7
20260503190009 19 192 16.1 37.0 0.00 0.00 0.00 39 1017.9
20260503184507 19 223 19.3 40.2 0.00 0.00 0.00 40 1018.3
20260503183004 18 269 24.1 38.6 0.00 0.00 0.00 41 1018.4
20260503181503 18 236 32.2 43.5 0.00 0.00 0.00 41 1018.8
20260503180100 18 219 11.3 33.8 0.00 0.00 0.00 42 1019.0
20260503174613 18 220 17.7 35.4 0.00 0.00 0.00 41 1019.1
20260503173125 18 213 14.5 33.8 0.00 0.00 0.00 42 1019.5
20260503171552 17 202 24.1 30.6 0.00 0.00 0.00 43 1019.8